Powrót do katalogu

COSMOS 1275 DEB

LostPO
NORAD 42121·DEBRIS·🇷🇺 Russia

Wystrzelony Jun 4, 1981 z Plesetsk Cosmodrome

Loading…

Następne Przeloty (najbliższe 24 godziny)

TLE

NieaktualneSource: Space-Track

Epoka: Feb 10, 2024, 18:25 UTC

1 42121U 81053QH  24041.76774431  .00005072  00000-0  30011-2 0  9998
2 42121  82.9208 200.8586 0043568  35.0254 325.3772 14.07045780963525

Śledź COSMOS 1275 DEB w czasie rzeczywistym z AllMySat

Download on the App Store